Location: Siratepeler Tepesi
(39.1042°N, 32.0781°E)
Time: 06:21:48
(UTC+00:00)

BlueWalker 3 - Pass Details

Date: 11 April 2026
Orbit: 448 x 458 km, 53.2° (Epoch: 9 May)

Event Time Altitude Azimuth Distance (km) Brightness Sun altitude
Rises 17:11:01 0° 309° (NW) 2,475 7.0 -9.4°
Reaches altitude 10° 17:13:10 10° 307° (NW) 1,599 5.8 -9.8°
Maximum altitude 17:16:45 72° 224° (SW) 484 1.9 -10.5°
Enters shadow 17:19:50 13° 140° (SE) 1,397 3.7 -11.0°
